Regional Weather Roundup
Issued by NWS

Home | Current Version | Previous Version | Text Only | Print | Product List | Glossary On
Versions: 1 2 3 4 5 6 7 8 9 10 11 12 13 14 15 16 17 18 19 20 21 22 23 24 25 26 27 28 29 30 31 32 33 34 35 36 37 38 39 40 41 42 43 44 45 46 47 48 49 50
972
ASUS43 KFSD 301910
RWRSD

WEATHER ROUNDUP FOR SOUTH DAKOTA
NATIONAL WEATHER SERVICE SIOUX FALLS SD
200 PM CDT TUE AUG 30 2016

NOTE: "FAIR" INDICATES FEW OR NO CLOUDS BELOW 12,000 FEET WITH NO
SIGNIFICANT WEATHER AND/OR OBSTRUCTIONS TO VISIBILITY.


SDZ001>005-009-010-012>017-302000-
NORTHWEST AND NORTH CENTRAL SOUTH DAKOTA

CITY           SKY/WX    TMP DP  RH WIND       PRES   REMARKS
BUFFALO          N/A     84  63  49 SE15      30.15F
FAITH            N/A     84  65  52 SE12G20   30.20F
MOBRIDGE       MOSUNNY   86  54  33 SE12G22   30.18F
$$

SDZ012>016-024>037-041>051-057-063-072>074-302000-
SOUTHWEST AND SOUTH CENTRAL SOUTH DAKOTA

CITY           SKY/WX    TMP DP  RH WIND       PRES   REMARKS
RAPID CTY ARPT SUNNY     80  65  59 SE14G21   30.23F
PIERRE         SUNNY     84  68  58 SE10G18   30.17F
CUSTER         MOSUNNY   76  52  43 SE5       30.36F
ELLSWORTH AFB  SUNNY     81  66  61 S14G21    30.22
PHILIP         SUNNY     86  65  49 SE10      30.19F
PINE RIDGE     SUNNY     85  53  33 VRB6      30.23F
WINNER         FAIR      87  65  47 SE10      30.19F
$$

SDZ004>011-016>023-039-040-302000-
NORTHEAST SOUTH DAKOTA

CITY           SKY/WX    TMP DP  RH WIND       PRES   REMARKS
ABERDEEN       SUNNY     82  56  40 NE10      30.22S
WATERTOWN      MOSUNNY   80  57  45 NE6       30.23F
BROOKINGS      MOSUNNY   77  64  64 VRB7      30.23S
SISSETON         N/A     80  52  37 VRB3      30.22S
$$

SDZ017-020-022-023-036>040-048>070-302000-
SOUTHEAST SOUTH DAKOTA

CITY           SKY/WX    TMP DP  RH WIND       PRES   REMARKS
SIOUX FALLS    CLOUDY    82  70  66 NE7       30.20F
HURON          MOSUNNY   84  69  60 E9        30.18F
CHAMBERLAIN    SUNNY     88  70  54 SE8       30.19S
MITCHELL       SUNNY     85  67  54 CALM      30.19F
YANKTON        MOSUNNY   81  66  61 S5        30.17F
$$

ABBREVIATIONS USED IN REMARKS
   TC - TEMPERATURE IN CELSIUS
  WCI - WIND CHILL INDEX
   HX - HEAT INDEX
  VSB - VISIBILITY





USA.gov is the U.S. government's official web portal to all federal, state and local government web resources and services.